Hamilton, OH

11:27 PM EDT on May 25, 2017 (GMT -0400)
Butler County Regional

Weather History for KHAO - January, 2013

Change the Weather History Date:

Saturday, January 5, 2013

  Actual Average (KLUK) Record (KLUK)
Temperature  
Mean Temperature 26 °F -  
Max Temperature 41 °F 37 °F 64 °F (2007)
Min Temperature 12 °F 22 °F -2 °F (1959)
Degree Days  
Heating Degree Days 38    
Moisture  
Dew Point 20 °F    
Average Humidity 73    
Maximum Humidity 92    
Minimum Humidity 53    
Precipitation  
Precipitation 0.00 in - - ()
Sea Level Pressure  
Sea Level Pressure 30.31 in    
Wind  
Wind Speed 2 mph (SSW)    
Max Wind Speed 9 mph    
Max Gust Speed -    
Visibility 8 miles    
Events      
Averages and records for this station are not official NWS values.
T = Trace of Precipitation, MM = Missing Value Source: NWS Daily Summary

Daily Weather History Graph

Daily Weather History Graph

Search for Another Location

Airport or City:

Trip Planner

Search our weather history database for the weather conditions in past years. The results will help you decide how hot, cold, wet, or windy it might be!

Date:

Astronomy

Jan. 05, 2013 Rise Set
Actual Time 7:58 AM EST 5:29 PM EST
Civil Twilight 7:28 AM EST 5:59 PM EST
Nautical Twilight 6:54 AM EST 6:32 PM EST
Astronomical Twilight 6:22 AM EST 7:05 PM EST
Moon 1:05 AM EST (1/5) 12:17 PM EST (1/5)
Length of Visible Light 10h 30m
Length of Day
9h 30m
Last Quarter, 44% of the Moon is Illuminated
Jan 5
Last Quarter
Jan 11
New
Jan 18
First Quarter
Jan 26
Full
Feb 3
Last Quarter

Hourly Weather History & Observations

Time (EST) Temp. Windchill Dew Point Humidity Pressure Visibility Wind Dir Wind Speed Gust Speed Precip Events Conditions
12:53 AM 19.0 °F - 15.1 °F 85% 30.38 in 9.0 mi Calm Calm - N/A   Clear
1:53 AM 15.1 °F - 12.0 °F 88% 30.37 in 7.0 mi Calm Calm - N/A   Clear
2:53 AM 16.0 °F - 12.0 °F 84% 30.39 in 7.0 mi Calm Calm - N/A   Clear
3:53 AM 12.9 °F 6.9 °F 10.9 °F 92% 30.39 in 5.0 mi East 3.5 mph - N/A   Clear
4:53 AM 16.0 °F - 12.9 °F 88% 30.39 in 6.0 mi Calm Calm - N/A   Clear
6:53 AM 12.9 °F - 10.0 °F 88% 30.37 in 5.0 mi Calm Calm - N/A   Clear
7:53 AM 12.9 °F - 8.1 °F 81% 30.40 in 5.0 mi Calm Calm - N/A   Haze
8:53 AM 16.0 °F 10.4 °F 14.0 °F 92% 30.40 in 3.0 mi East 3.5 mph - N/A   Clear
9:53 AM 27.0 °F - 23.0 °F 85% 30.40 in 5.0 mi Calm Calm - N/A   Clear
10:53 AM 30.0 °F - 24.1 °F 79% 30.40 in 6.0 mi Calm Calm - N/A   Haze
11:53 AM 34.0 °F - 25.0 °F 70% 30.35 in 9.0 mi Calm Calm - N/A   Clear
12:53 PM 41.0 °F 35.2 °F 25.0 °F 53% 30.32 in 10.0 mi SSW 9.2 mph - N/A   Clear
1:53 PM 41.0 °F 36.4 °F 25.0 °F 53% 30.28 in 10.0 mi South 6.9 mph - N/A   Overcast
2:53 PM 41.0 °F 38.0 °F 25.0 °F 53% 30.25 in 10.0 mi Variable 4.6 mph - N/A   Overcast
3:53 PM 39.9 °F 37.8 °F 24.1 °F 53% 30.25 in 10.0 mi SSW 3.5 mph - N/A   Overcast
4:53 PM 39.9 °F 35.8 °F 25.0 °F 55% 30.25 in 10.0 mi SW 5.8 mph - N/A   Overcast
5:53 PM 39.0 °F 35.7 °F 25.0 °F 57% 30.25 in 10.0 mi SSW 4.6 mph - N/A   Overcast
6:53 PM 37.9 °F 35.5 °F 26.1 °F 62% 30.25 in 10.0 mi SW 3.5 mph - N/A   Overcast
7:53 PM 37.0 °F 34.5 °F 26.1 °F 65% 30.24 in 10.0 mi SSW 3.5 mph - N/A   Overcast
8:53 PM 36.0 °F - 26.1 °F 67% 30.24 in 10.0 mi Calm Calm - N/A   Overcast
9:53 PM 34.0 °F - 26.1 °F 73% 30.23 in 10.0 mi Calm Calm - N/A   Mostly Cloudy
10:53 PM 30.0 °F - 24.1 °F 79% 30.22 in 10.0 mi Calm Calm - N/A   Clear
11:53 PM 32.0 °F - 26.1 °F 79% 30.20 in 10.0 mi Calm Calm - N/A   Overcast